Regional Weather Roundup
Issued by NWS Newport/Morehead, NC

Current Version | Previous Version | Text Only | Print | Product List | Glossary On
Versions: 1 2 3 4 5 6 7 8 9 10 11 12 13 14 15 16 17 18 19 20 21 22 23 24 25 26 27 28 29 30 31 32 33 34 35 36 37 38 39 40 41 42 43 44 45 46 47 48 49 50
000
ASUS42 KMHX 181712
RWRMHX
WEATHER ROUNDUP FOR EASTERN NORTH CAROLINA
NATIONAL WEATHER SERVICE NEWPORT/MOREHEAD CITY NC
100 PM EDT SAT APR 18 2015

NOTE: "FAIR" INDICATES FEW OR NO CLOUDS BELOW 12,000 FEET
WITH NO SIGNIFICANT WEATHER AND/OR OBSTRUCTIONS TO VISIBILITY

NCZ015>017-031-032-045>047-102-103-181800-
NORTH COAST

CITY           SKY/WX    TMP DP  RH WIND       PRES   REMARKS
EDENTON        MOSUNNY   77  66  68 S5        29.99S
ELIZABETH CITY MOSUNNY   81  64  56 NE6       29.98F
KITTY HAWK     MOSUNNY   71  63  77 NE5       29.99S
MANTEO         MOSUNNY   74  64  71 NE9       30.00S

$$

NCZ045>047-081-094-103-104-181800-
CENTRAL COAST

CITY           SKY/WX    TMP DP  RH WIND       PRES   REMARKS
FRISCO         PTSUNNY   68  62  81 CALM      29.99F
SWANQUARTER      N/A     77 N/A N/A E2        29.94S

$$

NCZ095-097-098-100-101-181800-
SOUTHERN COAST

CITY           SKY/WX    TMP DP  RH WIND       PRES   REMARKS
BEAUFORT       CLOUDY    72  68  87 CALM      29.99F
CEDAR ISLAND     N/A     72 N/A N/A NE2       30.03S
JACKSONVILLE   CLOUDY    74  66  76 E3        29.99F
PINEY ISLAND   PTSUNNY  N/A N/A N/A E5        30.00S
WILMINGTON     CLOUDY    70  66  87 SE5       30.00F


$$

NCZ011>013-027>030-043-044-078>080-089-090>093-098-181800-
COASTAL PLAIN

CITY           SKY/WX    TMP DP  RH WIND       PRES   REMARKS
AHOSKIE        MOSUNNY   78  62  58 N7        29.98F
CLINTON        CLOUDY    73  67  82 CALM      30.00F
ELIZABETHTOWN  PTSUNNY   72  67  86 SE5       30.00F
GOLDSBORO      PTSUNNY   78  64  63 NE2       29.97F
GREENVILLE     LGT RAIN  77  64  65 CALM      30.01F
HAVELOCK       LGT RAIN  76  66  71 VRB3      30.00F
KENANSVILLE    MOSUNNY   72  65  77 CALM      30.01F
KINSTON        MOSUNNY   79  64  61 SE6       29.99F
NEW BERN       LGT RAIN  73  67  81 S5        30.00F
RICHLANDS      CLOUDY    72  64  78 CALM      30.00F
ROCKY MOUNT    MOSUNNY   78  63  59 VRB5      29.99F
WASHINGTON     PTSUNNY   75  64  67 CALM      29.99F
WHITEVILLE     LGT RAIN  71  67  85 NE3       30.00F

$$

AMZ130-135-150-152-154-156-158-170-250-252-270-ANZ085-086-088-633-658-670-181800-
MARINE OBSERVATIONS

STATION/POSITION TIME  TEMP    WIND        PRES    WAVE   SWELL
                       AIR SEA DIR/SP/G            HT/PER HT/PER
                 (UTC) (F)     (DEG/KT/KT) (MB)    (FT/S) (FT/S)
CHESAPEAKE LIGHT 1600   58      20/ 13/ 13 1016.6
64 E VA BEACH    1650   56 56  350/  6/  6 1015.2    3/ 9   3/ 9
DUCK             1600   63 54   10/  7/  8 1014.9
2 E DUCK         1611      58                N/A     3/ 7   2/12
10 NE DUCK       NOT AVBL
OREGON INLET     1600   69 58   40/  4/  7 1015.7
HATTERAS CG      1600   70 66  120/  3/  5 1015.4
DIAMOND BUOY     1650   71 75   50/  8/  8 1015.6    5/ 8   5/ 8
CAPE LOOKOUT     1700   68      50/  5/  5 1015.4
BEAUFORT LAB     1600   68 63  210/  3/  4 1015.0
27 SE WRIGHTSVLE 1600   66 72   40/ 12/ 14   N/A
5 SE WRIGHTSVLE  NOT AVBL
225 S CAPE HAT   1650   71 74  330/ 10/ 16 1014.9    6/11   5/11
41 SE CHARLESTON 1650   70 74   10/ 12/ 12 1014.9    3/ 8   3/ 8

$$


USA.gov is the U.S. government's official web portal to all federal, state and local government web resources and services.